Temperature
11 9 9 9 10 10 11 10 10 11 12 12 12 12 13 14 14 13 14 15 15 15 16 16 16 17 17 17 17 17 16 16 16 15 15 14 14 14 14 14 14 14 13 13
9 9 10 11 11 11 10 10 10 11 12 12 11 11 12 12 13 14 14 14 15 15 15 16 16 16 16 16 16 16 16 16 16 16 15 15 15 14 14 14 14 13 13 13
9 10 11 11 11 11 10 10 10 10 11 11 11 10 11 12 13 14 14 14 15 15 15 15 15 15 16 16 16 16 16 16 16 16 15 15 14 13 13 13 13 13 13 13
9 10 11 11 11 11 10 11 11 11 10 9 10 9 10 11 12 12 12 13 14 14 14 14 15 15 15 15 15 16 16 16 16 15 15 15 14 14 14 14 14 14 13 13
9 10 11 10 11 11 10 11 11 10 9 8 9 8 9 10 11 12 11 13 13 14 14 14 14 14 14 14 15 15 15 15 15 15 15 15 14 14 14 14 13 13 13 13
9 10 11 11 11 11 11 10 10 9 8 8 9 8 9 9 11 11 11 12 13 13 13 14 14 14 14 14 14 14 15 15 15 15 14 14 14 14 14 13 13 13 13 12
9 10 10 11 10 10 10 9 8 8 7 8 9 9 9 11 11 11 11 12 13 13 13 13 13 13 13 14 14 14 14 14 14 14 14 14 14 14 13 13 13 13 12 12
8 8 10 10 10 9 9 9 8 8 7 8 9 9 10 11 11 12 12 12 12 12 12 12 13 13 13 13 13 13 13 13 13 14 14 14 14 13 13 13 13 12 12 12
7 8 10 10 10 10 9 8 8 8 7 7 7 8 9 11 11 10 11 11 12 12 12 12 12 12 12 12 13 13 13 13 13 13 13 13 13 13 13 13 12 12 12 12
8 8 8 9 10 10 9 9 7 8 7 7 7 8 9 10 10 10 10 10 11 12 12 12 12 12 12 12 12 12 12 12 12 12 12 13 13 13 13 12 12 12 12 12
8 7 7 8 8 8 8 8 8 7 7 6 7 8 9 10 10 9 9 10 11 11 11 11 11 11 11 11 11 11 11 12 12 12 12 12 12 12 12 12 12 12 11 11
8 6 6 6 8 8 8 8 7 6 6 6 6 8 10 9 9 9 9 10 11 11 11 11 11 11 11 11 11 11 11 11 11 11 11 11 11 12 12 11 11 11 11 11
7 6 5 6 7 7 7 7 7 6 6 5 6 8 9 8 9 9 10 10 10 10 10 10 10 10 10 10 10 10 10 10 10 10 10 11 11 11 11 11 11 11 10 10
8 5 5 6 6 6 6 6 6 6 5 5 6 7 8 9 9 9 9 9 9 9 9 9 9 9 9 9 9 9 9 9 10 10 10 10 10 10 10 10 10 10 10 9
6 5 4 5 6 6 6 6 6 6 6 5 6 7 8 8 8 8 8 9 9 9 9 9 9 8 8 8 8 9 9 9 9 9 9 9 9 9 9 9 9 9 9 9
5 5 4 5 5 6 6 6 6 6 6 6 6 7 8 8 8 8 8 8 8 8 8 8 8 8 8 8 8 8 8 8 8 8 8 8 8 8 8 8 8 8 8 8
4 4 4 4 5 5 4 6 6 6 6 6 6 7 7 7 7 7 7 8 7 7 7 7 7 7 7 7 7 7 7 7 7 7 7 7 7 7 8 8 8 8 8 8
4 3 4 3 3 3 5 6 6 6 7 7 7 7 7 6 7 7 7 7 7 7 7 7 6 6 6 6 6 6 6 6 6 6 6 6 6 7 7 7 7 7 7 7
4 4 3 3 3 3 5 6 6 6 6 7 6 6 6 7 6 6 7 7 7 6 6 6 6 5 5 5 5 5 5 5 5 6 5 5 5 6 6 6 6 6 6 6
4 4 3 3 3 3 5 6 7 6 5 6 6 5 6 5 4 5 6 6 6 6 6 5 5 5 5 5 4 4 4 5 5 5 5 5 5 5 5 5 5 5 5 5
3 3 3 3 3 4 5 6 6 5 5 6 6 6 5 4 5 5 5 5 5 5 5 5 4 4 4 4 4 4 4 4 4 4 4 4 4 4 4 4 4 4 5 5
3 2 2 3 3 4 5 5 5 5 6 6 6 6 5 5 5 5 5 5 4 4 4 4 3 3 3 3 3 3 3 3 3 3 3 3 4 3 3 3 4 4 4 4
3 4 3 3 4 5 6 6 7 7 6 6 5 5 5 5 4 4 4 4 4 3 3 3 3 3 3 2 2 2 2 2 2 2 3 3 3 3 3 3 3 3 3 3
2 3 3 3 3 4 5 6 6 6 6 6 5 5 4 4 4 3 3 3 3 3 2 2 2 2 2 2 1 1 1 1 2 2 2 2 2 2 2 2 2 2 2 2
2 2 2 2 3 3 5 5 5 5 5 5 4 4 4 3 3 3 2 2 2 2 1 1 1 1 1 1 1 0 0 1 1 1 1 1 1 1 1 1 1 1 1 1
2 3 2 3 3 3 4 5 5 4 4 4 3 3 3 3 2 2 2 1 1 1 1 0 0 -0 -0 -0 -0 -0 -1 -0 -0 0 0 -0 0 0 0 0 0 0 0 0
Wind_Speed
1 2 6 8 9 7 5 7 10 10 7 7 11 16 17 14 10 10 10 9 8 8 8 6 5 4 5 6 7 9 10 10 9 8 9 10 11 10 10 11 12 15 14 15
1 7 10 7 6 6 7 9 10 10 6 7 11 15 14 12 9 8 8 8 7 6 6 5 5 4 4 5 7 8 10 10 10 10 11 10 10 9 9 9 11 14 14 15
7 7 5 4 4 5 7 8 8 8 9 5 7 10 9 8 6 5 5 6 6 6 6 5 4 4 4 5 6 7 8 9 10 10 7 5 4 4 6 8 10 13 15 15
7 6 4 4 6 5 7 7 7 7 6 5 2 6 8 6 7 6 6 5 4 4 4 4 3 3 3 5 5 5 7 8 8 9 9 10 10 10 12 11 11 11 13 14
6 4 4 6 7 6 7 6 6 7 6 6 4 5 9 5 6 7 7 6 5 4 4 4 3 3 4 4 4 4 5 6 6 8 10 12 12 11 9 8 9 11 12 13
7 5 5 6 4 4 3 3 4 1 1 5 6 6 8 5 6 5 5 5 5 4 4 4 4 3 4 4 4 4 4 6 6 7 9 10 12 11 9 9 10 10 9 11
5 5 4 2 1 1 2 3 3 3 2 6 4 5 9 9 6 5 5 4 4 3 3 4 5 5 5 5 5 4 4 6 6 7 8 9 11 12 13 12 12 10 9 10
3 6 4 3 5 4 3 5 4 4 5 5 4 7 8 8 4 2 2 2 2 3 3 5 5 5 5 5 5 5 5 6 6 6 7 8 9 9 10 11 10 11 11 11
5 5 3 3 3 6 4 5 5 3 3 5 6 7 9 4 3 2 3 4 4 4 5 6 6 6 6 6 6 6 6 6 6 6 6 7 7 8 9 10 11 10 10 9
5 4 5 3 1 2 5 5 3 3 3 5 6 6 5 5 5 4 3 4 5 6 6 7 7 6 6 6 6 6 5 5 6 6 6 5 6 8 8 8 10 10 10 10
3 3 4 3 5 6 3 3 3 3 4 4 5 7 5 4 3 3 4 5 6 7 8 8 8 7 7 6 5 5 5 5 5 5 5 5 5 6 6 7 9 10 10 10
3 3 5 8 7 5 6 7 6 4 6 5 5 8 5 4 4 4 7 8 8 8 8 8 7 7 6 6 6 5 5 5 5 5 5 5 5 5 6 7 8 9 10 11
3 3 2 5 3 1 3 4 5 4 3 6 7 9 4 5 9 9 9 10 10 10 9 8 7 6 6 6 6 5 5 5 5 5 5 5 5 6 7 8 8 8 8 9
2 4 7 9 7 3 5 7 6 6 7 9 12 16 15 13 13 13 12 12 11 9 8 8 7 6 6 6 5 5 6 5 5 5 5 5 6 6 7 8 8 7 7 8
4 6 8 11 10 8 11 13 11 13 13 13 15 18 20 15 11 10 10 10 10 9 8 7 6 6 6 6 6 5 6 6 5 5 5 6 6 6 6 6 6 6 6 7
4 5 5 9 10 12 16 17 17 17 16 16 19 22 17 11 8 8 9 9 9 9 8 7 7 6 6 6 6 6 6 6 6 5 5 6 6 6 6 6 5 5 5 6
5 5 4 7 6 7 12 14 16 12 11 11 16 17 11 8 9 8 8 7 7 7 7 7 7 6 6 6 6 6 6 6 6 6 6 6 6 6 6 5 4 5 5 5
8 6 4 4 2 10 10 5 9 11 14 14 13 10 9 9 9 8 7 6 7 7 6 6 6 6 6 6 6 6 6 6 5 6 6 7 7 6 6 5 5 4 4 4
11 9 5 4 6 10 9 6 6 7 9 9 9 9 8 7 5 6 5 5 6 6 6 6 6 6 6 6 6 6 6 5 6 6 7 7 7 6 5 5 5 5 4 4
9 9 7 6 6 8 8 5 3 1 7 5 4 6 7 4 6 7 5 5 6 6 5 5 5 5 5 6 5 5 6 6 7 7 7 6 5 5 5 5 5 5 4 4
6 7 11 10 9 9 8 5 2 4 7 3 3 5 5 5 7 7 5 5 5 6 6 5 4 5 5 5 5 6 6 7 8 7 6 6 5 5 4 4 4 4 4 3
10 8 9 8 9 11 6 4 6 7 3 3 4 5 5 7 8 7 6 5 5 6 6 5 4 5 5 5 4 6 7 8 8 6 6 6 5 4 4 4 4 4 3 3
10 10 7 10 11 6 5 7 7 4 5 6 5 6 6 6 7 6 6 6 6 5 6 5 5 6 6 5 5 6 7 8 8 6 5 5 5 5 4 4 4 4 3 3
6 6 6 7 10 9 8 8 7 6 7 7 6 6 6 7 7 7 6 6 6 6 5 5 5 6 7 6 6 6 7 7 7 6 5 5 5 5 5 4 3 3 3 3
8 6 6 10 9 7 9 9 8 7 7 7 6 6 6 6 7 7 6 6 5 5 5 4 4 5 7 6 6 7 7 6 6 6 5 4 4 5 5 4 4 4 3 3
8 9 9 11 9 8 8 6 7 7 8 7 6 5 4 5 6 6 6 5 5 5 5 5 5 6 6 6 7 7 6 6 6 6 5 4 4 4 4 4 5 5 5 7
Wind_Direction
166 158 221 220 210 224 246 262 275 275 280 286 272 277 282 283 276 262 260 254 249 252 256 257 257 255 243 231 220 215 211 209 202 200 201 204 211 212 212 211 207 204 204 203
27 243 238 230 226 234 249 269 274 285 287 287 284 282 276 274 265 251 246 249 251 254 268 275 276 272 252 237 225 220 216 210 204 204 206 208 209 211 214 213 210 206 205 204
217 243 231 222 236 247 257 251 257 273 307 301 302 296 278 278 271 268 250 246 252 251 262 280 287 283 268 254 239 227 223 218 212 209 202 200 200 204 209 215 214 211 209 207
244 247 228 243 249 232 263 247 253 274 309 295 328 295 284 273 281 272 267 260 250 251 256 273 289 296 276 260 256 244 229 223 218 208 200 195 204 213 216 216 215 214 210 209
252 233 228 240 240 217 238 255 263 262 259 279 252 243 281 280 263 263 257 253 253 254 259 271 280 281 280 271 264 256 247 232 223 216 211 207 215 221 221 218 214 215 213 212
248 254 227 220 231 223 247 323 320 339 147 265 233 210 277 248 237 251 260 258 259 270 279 284 295 311 308 300 296 283 262 246 230 220 218 213 220 225 222 220 218 217 218 215
289 274 250 189 193 343 77 65 343 328 293 252 248 225 252 251 242 226 248 264 261 263 276 290 302 309 306 305 303 299 278 258 243 232 229 222 222 224 223 222 221 219 219 219
254 279 248 198 187 193 200 165 186 239 248 282 289 243 255 262 256 249 255 278 297 300 290 291 291 291 291 292 288 286 279 267 254 245 244 240 228 226 229 227 227 222 222 221
204 260 288 251 215 167 184 207 194 196 265 269 261 274 296 288 321 340 342 348 334 318 312 304 302 305 301 296 284 275 272 272 261 250 245 247 238 231 234 232 230 227 226 224
172 254 279 293 311 222 183 173 135 190 248 263 272 262 255 291 316 322 322 320 308 305 306 304 300 300 297 289 286 291 285 274 265 257 248 252 244 240 237 235 236 230 226 224
151 212 291 314 213 211 186 188 190 202 214 223 268 264 236 247 278 308 311 308 302 301 301 298 297 297 300 300 291 288 291 293 286 276 267 267 262 252 243 239 239 239 233 226
172 174 251 256 254 230 205 203 181 204 244 225 251 268 262 257 282 303 308 308 308 306 304 303 303 309 312 309 304 296 295 298 294 285 283 280 276 272 257 249 244 242 240 231
157 162 278 316 312 302 219 211 198 209 230 231 240 264 278 315 313 311 310 309 311 309 312 317 321 319 314 306 303 301 300 297 295 293 290 289 286 279 266 256 252 244 241 240
171 194 212 226 231 230 256 259 237 224 241 249 243 263 283 292 295 301 303 303 304 306 310 314 317 317 316 314 311 309 308 307 306 305 302 294 285 281 277 265 255 250 246 242
166 225 240 254 260 261 260 261 253 244 239 247 260 265 273 277 280 281 286 294 302 304 310 311 314 317 319 319 320 321 318 318 316 314 311 300 294 291 290 279 267 261 256 249
177 224 251 268 258 259 266 260 253 252 250 250 261 269 271 277 280 282 283 290 297 300 303 307 310 314 316 315 319 322 323 322 323 320 311 312 307 304 299 286 277 271 269 261
198 200 231 263 264 283 264 243 238 233 226 230 250 261 276 285 282 281 281 279 280 290 301 308 309 306 306 308 311 314 316 319 321 318 319 322 317 310 305 304 297 281 274 272
198 198 220 256 235 242 248 228 223 235 247 242 247 260 268 270 272 272 267 269 278 285 293 298 304 308 309 309 309 309 314 317 318 318 320 322 321 316 315 315 309 302 293 280
201 195 207 217 240 268 278 254 216 224 257 246 246 262 273 281 294 283 275 270 265 268 274 278 284 293 304 311 313 314 314 316 319 319 318 317 318 316 318 315 312 308 306 294
190 191 206 214 231 248 250 242 228 216 268 246 240 266 284 304 295 283 286 291 287 282 281 287 292 297 302 306 315 319 317 321 316 311 309 312 315 314 312 313 312 310 304 294
169 196 217 226 239 258 252 243 150 207 250 252 260 277 280 263 256 273 284 288 284 287 291 297 301 301 301 309 320 320 320 316 309 310 313 320 324 321 315 317 312 310 309 305
187 194 206 209 230 248 227 175 198 227 242 260 269 262 266 270 277 281 281 283 293 302 308 310 310 306 310 318 323 319 316 313 312 315 321 327 328 327 329 321 319 319 317 307
204 201 198 204 223 235 200 212 233 236 256 263 253 252 257 268 274 280 281 284 288 290 296 300 299 304 314 321 322 316 316 320 319 319 322 325 331 334 331 324 321 320 318 312
233 211 210 238 251 252 254 254 257 254 253 251 248 254 253 259 266 272 273 277 282 286 292 301 308 311 315 322 322 312 314 318 318 318 321 326 331 331 332 330 323 318 314 315
218 199 219 246 258 268 256 244 247 257 257 258 255 251 252 257 266 269 273 273 279 288 293 300 300 301 307 317 318 319 321 324 323 318 317 322 326 324 327 330 324 315 309 304
214 213 224 247 240 236 253 248 250 254 261 260 257 259 263 255 264 271 274 278 282 286 291 298 299 303 307 313 314 318 322 326 323 319 320 320 319 321 323 324 332 343 332 332
Height
1477 1481 1481 1479 1478 1478 1477 1478 1476 1470 1463 1463 1459 1452 1445 1440 1439 1438 1436 1435 1435 1434 1434 1435 1435 1435 1435 1435 1435 1436 1437 1438 1440 1441 1442 1444 1445 1446 1448 1449 1451 1454 1456 1458
1480 1479 1473 1472 1473 1474 1476 1476 1474 1467 1461 1460 1456 1449 1441 1436 1435 1433 1432 1431 1430 1430 1430 1430 1430 1430 1430 1430 1430 1431 1431 1432 1434 1434 1436 1437 1439 1440 1442 1443 1445 1447 1449 1451
1478 1472 1469 1470 1471 1473 1473 1473 1471 1468 1462 1458 1457 1450 1441 1434 1432 1430 1429 1428 1428 1427 1426 1426 1426 1426 1426 1426 1426 1426 1426 1427 1428 1429 1431 1433 1434 1436 1437 1438 1439 1440 1443 1445
1472 1468 1467 1468 1469 1469 1471 1465 1465 1464 1467 1467 1462 1463 1444 1436 1431 1428 1427 1426 1425 1425 1424 1424 1423 1422 1422 1422 1422 1421 1422 1422 1422 1424 1425 1425 1426 1427 1428 1430 1431 1433 1436 1438
1470 1466 1465 1466 1465 1464 1465 1461 1462 1462 1465 1468 1464 1467 1448 1437 1432 1427 1425 1423 1422 1422 1421 1421 1420 1420 1419 1418 1418 1417 1417 1417 1418 1418 1419 1419 1420 1421 1423 1424 1425 1427 1429 1430
1467 1463 1462 1461 1460 1460 1460 1462 1462 1464 1468 1471 1460 1464 1450 1438 1429 1424 1422 1420 1419 1419 1419 1418 1418 1417 1416 1415 1414 1413 1412 1412 1412 1412 1413 1414 1414 1416 1417 1417 1418 1420 1422 1423
1468 1463 1459 1458 1460 1461 1462 1470 1476 1475 1475 1468 1455 1456 1445 1427 1423 1421 1420 1418 1418 1417 1417 1416 1415 1414 1412 1411 1410 1409 1409 1408 1407 1407 1407 1407 1408 1409 1410 1411 1412 1412 1414 1415
1472 1469 1459 1456 1458 1462 1463 1467 1476 1479 1476 1467 1455 1452 1436 1422 1419 1418 1417 1416 1416 1415 1414 1414 1413 1411 1410 1408 1407 1406 1405 1404 1403 1402 1402 1402 1402 1403 1404 1405 1405 1406 1407 1408
1471 1468 1457 1455 1454 1457 1462 1464 1464 1471 1470 1471 1459 1446 1432 1419 1418 1417 1416 1415 1414 1414 1412 1411 1410 1408 1407 1405 1403 1402 1400 1399 1398 1398 1397 1396 1397 1397 1397 1398 1399 1399 1400 1402
1463 1467 1459 1455 1454 1453 1456 1459 1466 1468 1472 1470 1459 1450 1438 1424 1420 1418 1416 1415 1414 1413 1411 1410 1408 1405 1403 1402 1400 1398 1396 1395 1394 1393 1392 1391 1390 1390 1390 1391 1391 1392 1393 1394
1460 1466 1463 1459 1457 1456 1458 1460 1461 1465 1466 1468 1461 1446 1425 1422 1419 1418 1416 1414 1413 1411 1409 1407 1404 1402 1400 1398 1396 1394 1392 1390 1389 1388 1386 1385 1384 1384 1384 1383 1383 1384 1385 1387
1459 1465 1467 1460 1452 1450 1453 1455 1459 1466 1465 1462 1460 1442 1420 1419 1417 1417 1415 1414 1411 1409 1407 1404 1401 1398 1396 1393 1392 1389 1387 1385 1384 1383 1381 1380 1379 1378 1377 1376 1376 1377 1378 1378
1458 1464 1468 1463 1458 1453 1452 1452 1453 1457 1460 1458 1456 1437 1418 1418 1416 1415 1414 1411 1409 1407 1404 1400 1397 1394 1392 1390 1387 1385 1383 1381 1379 1377 1376 1374 1373 1372 1371 1370 1370 1369 1369 1370
1454 1460 1462 1460 1454 1452 1453 1451 1451 1455 1456 1451 1443 1430 1420 1417 1416 1414 1412 1409 1406 1404 1401 1397 1394 1391 1388 1386 1384 1381 1379 1376 1374 1372 1370 1368 1367 1366 1365 1363 1363 1362 1362 1362
1452 1457 1456 1451 1448 1449 1447 1446 1445 1446 1444 1443 1430 1425 1416 1414 1413 1412 1409 1406 1403 1400 1397 1394 1391 1388 1385 1383 1380 1377 1375 1373 1370 1368 1365 1363 1361 1360 1358 1357 1355 1355 1354 1355
1450 1453 1453 1450 1445 1444 1441 1437 1435 1433 1432 1429 1425 1418 1410 1410 1409 1407 1405 1402 1400 1397 1394 1392 1389 1386 1383 1380 1377 1374 1371 1369 1366 1363 1361 1359 1357 1354 1352 1350 1349 1349 1348 1348
1449 1451 1452 1448 1444 1443 1438 1425 1423 1423 1420 1420 1418 1410 1407 1407 1405 1403 1401 1399 1396 1394 1391 1389 1387 1384 1380 1377 1374 1371 1368 1365 1362 1359 1356 1354 1352 1349 1347 1345 1344 1343 1342 1342
1444 1447 1448 1447 1447 1445 1422 1414 1413 1413 1410 1409 1407 1405 1404 1403 1400 1399 1397 1396 1393 1391 1389 1386 1384 1381 1378 1374 1371 1368 1365 1362 1358 1355 1352 1350 1347 1344 1342 1340 1338 1337 1336 1335
1434 1440 1443 1444 1443 1432 1418 1411 1409 1410 1407 1403 1402 1401 1400 1398 1397 1395 1394 1392 1390 1388 1386 1383 1380 1377 1374 1371 1368 1364 1361 1358 1354 1351 1348 1346 1343 1340 1338 1336 1334 1333 1331 1330
1428 1433 1438 1438 1436 1429 1412 1405 1402 1406 1407 1399 1398 1398 1397 1396 1397 1392 1390 1388 1386 1384 1382 1379 1376 1373 1370 1367 1363 1360 1357 1354 1350 1348 1345 1342 1339 1337 1335 1332 1331 1329 1328 1326
1428 1431 1431 1430 1427 1416 1405 1401 1402 1410 1403 1396 1395 1394 1394 1393 1392 1388 1386 1384 1382 1380 1378 1375 1372 1369 1366 1363 1359 1356 1353 1350 1347 1344 1341 1338 1335 1333 1331 1329 1328 1326 1324 1323
1419 1423 1424 1423 1422 1413 1397 1398 1400 1397 1393 1393 1392 1391 1390 1388 1386 1384 1382 1380 1378 1376 1374 1371 1368 1365 1362 1359 1356 1352 1349 1346 1343 1340 1337 1334 1332 1330 1328 1326 1324 1323 1321 1319
1408 1407 1407 1407 1401 1393 1391 1391 1390 1390 1390 1389 1388 1387 1386 1384 1382 1380 1378 1376 1374 1372 1369 1367 1364 1361 1358 1355 1352 1349 1345 1343 1340 1336 1333 1331 1328 1326 1324 1323 1321 1319 1318 1316
1400 1397 1399 1398 1391 1388 1387 1386 1386 1386 1385 1384 1383 1382 1381 1379 1377 1376 1374 1372 1369 1367 1365 1362 1359 1356 1353 1351 1348 1345 1342 1339 1336 1333 1330 1328 1325 1323 1321 1319 1318 1316 1315 1313
1392 1392 1392 1390 1386 1384 1382 1381 1381 1381 1380 1379 1378 1377 1376 1374 1372 1370 1368 1366 1364 1362 1360 1358 1355 1352 1349 1346 1343 1341 1338 1335 1332 1329 1327 1324 1322 1320 1318 1316 1315 1313 1312 1311
1384 1385 1386 1382 1379 1379 1376 1376 1376 1376 1374 1373 1372 1371 1370 1369 1367 1365 1363 1361 1360 1357 1355 1353 1351 1348 1345 1342 1339 1337 1334 1332 1329 1326 1324 1321 1319 1318 1316 1313 1312 1311 1310 1308